Weather History for KSNT - December, 2012

Change the Weather History Date:

Saturday, December 29, 2012

  Actual Average Record
Temperature  
Mean Temperature 1 °F 14 °F  
Max Temperature 13 °F 25 °F 43 °F (1967)
Min Temperature -12 °F 3 °F -49 °F (1978)
Degree Days  
Heating Degree Days 64 51  
Month to date heating degree days 1342 1461  
Since 1 July heating degree days 4007 4558  
Cooling Degree Days 0 0  
Month to date cooling degree days 0 0  
Year to date cooling degree days 3 3  
Moisture  
Dew Point -3 °F    
Average Humidity 80    
Maximum Humidity 92    
Minimum Humidity 67    
Precipitation  
Precipitation 0.04 in 0.04 in 0.52 in (1998)
Month to date precipitation 3.32 1.19  
Year to date precipitation 23.82 16.98  
Sea Level Pressure  
Sea Level Pressure 30.21 in    
Wind  
Wind Speed 0 mph (North)    
Max Wind Speed 5 mph    
Max Gust Speed 6 mph    
T = Trace of Precipitation, MM = Missing Value Source: NWS Daily Summary

Daily Weather History Graph

Daily Weather History Graph

Search for Another Location

Airport or City:

Trip Planner

Search our weather history database for the weather conditions in past years. The results will help you decide how hot, cold, wet, or windy it might be!

Date:

Astronomy

Dec. 29, 2012 Rise Set
Actual Time 8:14 AM MST 5:09 PM MST
Civil Twilight 7:41 AM MST 5:42 PM MST
Nautical Twilight 7:05 AM MST 6:19 PM MST
Astronomical Twilight 6:29 AM MST 6:54 PM MST
Moon 6:50 PM MST (12/29) 8:47 AM MST (12/29)
Length of Visible Light 10h 01m
Length of Day
8h 54m
Full, 98% of the Moon is Illuminated
Dec 29
Full
Jan 4
Last Quarter
Jan 11
New
Jan 18
First Quarter
Jan 26
Full

Hourly Weather History & Observations

Time (MST) Temp. Dew Point Humidity Pressure Visibility Wind Dir Wind Speed Gust Speed Precip Events Conditions
12:51 AM -4.0 °F -9.0 °F 79% 30.26 in - Calm Calm - N/A   Unknown
1:51 AM -6.0 °F -11.0 °F 79% 30.26 in - Calm Calm - N/A   Unknown
2:51 AM -6.0 °F -11.0 °F 79% 30.26 in - Calm Calm - N/A   Unknown
3:51 AM -9.0 °F -11.9 °F 87% 30.29 in - Calm Calm - N/A   Unknown
4:51 AM -7.1 °F -11.0 °F 83% 30.28 in - Calm Calm - N/A   Unknown
5:51 AM -9.0 °F -14.1 °F 79% 30.32 in - Calm Calm - N/A   Unknown
6:51 AM -9.0 °F -14.1 °F 79% 30.34 in - Calm Calm - N/A   Unknown
7:51 AM -8.0 °F -13.0 °F 79% 30.35 in - Calm Calm - N/A   Unknown
8:51 AM -8.0 °F -11.9 °F 83% 30.35 in - Calm Calm - N/A   Unknown
9:51 AM -7.1 °F -9.9 °F 87% 30.35 in - Calm Calm - N/A   Unknown
10:51 AM -0.9 °F -5.1 °F 83% 30.30 in - Calm Calm - N/A   Unknown
11:51 AM -0.9 °F -4.0 °F 87% 30.28 in - Calm Calm - N/A   Unknown
12:51 PM 3.0 °F -0.9 °F 84% 30.22 in - Calm Calm - N/A   Unknown
1:51 PM 6.1 °F 1.0 °F 80% 30.18 in - Calm Calm - N/A   Unknown
2:51 PM 10.9 °F 3.0 °F 70% 30.13 in - Calm Calm - N/A   Unknown
3:51 PM 12.0 °F 3.9 °F 70% 30.12 in - Calm Calm - N/A   Unknown
4:51 PM 12.9 °F 5.0 °F 71% 30.09 in - Calm Calm - N/A   Unknown
5:51 PM 10.9 °F 5.0 °F 77% 30.10 in - Calm Calm - N/A   Unknown
6:51 PM 12.0 °F 6.1 °F 77% 30.08 in - Calm Calm - N/A   Unknown
7:51 PM 12.9 °F 8.1 °F 81% 30.08 in - Calm Calm - N/A   Unknown
8:51 PM 10.9 °F 8.1 °F 88% 30.09 in - Calm Calm - N/A   Unknown
9:51 PM 10.9 °F 8.1 °F 88% 30.09 in - Calm Calm - 0.01 in   Unknown
10:51 PM 10.9 °F 8.1 °F 88% 30.07 in - Calm Calm - 0.01 in   Unknown
11:51 PM 9.0 °F 7.0 °F 92% 30.09 in - Calm Calm - 0.02 in   Unknown